QPF
0.00 0.00 0.00 0.00 0.00 0.00 0.00 0.00 0.00 0.00 0.00 0.00 0.00 0.00 0.00 0.00 0.00 0.00 0.00 0.01 0.00 0.01 0.00 0.00 0.01 0.00 0.00 0.00 0.07 0.03 0.02 0.00 0.00 0.00 0.00 0.01 0.04 0.04 0.06 0.07 0.04 0.01 0.01
0.00 0.00 0.00 0.00 0.00 0.00 0.00 0.00 0.00 0.00 0.00 0.00 0.00 0.00 0.00 0.00 0.00 0.00 0.03 0.00 0.00 0.00 0.00 0.00 0.00 0.00 0.00 0.01 0.01 0.06 0.03 0.00 0.00 0.00 0.00 0.01 0.04 0.04 0.04 0.05 0.03 0.01 0.01
0.00 0.00 0.00 0.00 0.00 0.00 0.00 0.00 0.00 0.00 0.00 0.00 0.00 0.00 0.00 0.00 0.00 0.04 0.10 0.03 0.00 0.00 0.00 0.00 0.00 0.00 0.02 0.07 0.04 0.04 0.04 0.00 0.00 0.00 0.00 0.01 0.03 0.03 0.02 0.02 0.00 0.00 0.00
0.00 0.00 0.00 0.00 0.00 0.00 0.00 0.00 0.00 0.00 0.00 0.00 0.00 0.00 0.00 0.00 0.00 0.09 0.09 0.08 0.01 0.00 0.00 0.00 0.00 0.03 0.01 0.10 0.07 0.03 0.01 0.00 0.00 0.00 0.00 0.01 0.01 0.00 0.01 0.01 0.00 0.00 0.00
0.00 0.00 0.00 0.00 0.00 0.00 0.00 0.00 0.00 0.00 0.00 0.00 0.00 0.00 0.00 0.00 0.00 0.00 0.05 0.04 0.00 0.00 0.01 0.02 0.01 0.04 0.00 0.01 0.01 0.01 0.00 0.00 0.00 0.00 0.00 0.00 0.00 0.00 0.00 0.00 0.00 0.00 0.00
0.00 0.00 0.00 0.00 0.00 0.00 0.00 0.00 0.00 0.00 0.00 0.00 0.00 0.00 0.00 0.00 0.00 0.02 0.00 0.00 0.00 0.00 0.00 0.01 0.01 0.00 0.00 0.00 0.00 0.00 0.00 0.00 0.00 0.00 0.00 0.00 0.00 0.00 0.00 0.00 0.00 0.00 0.00
0.00 0.00 0.00 0.00 0.00 0.00 0.00 0.00 0.00 0.00 0.00 0.00 0.00 0.00 0.00 0.00 0.00 0.02 0.00 0.00 0.00 0.00 0.01 0.02 0.02 0.00 0.00 0.00 0.00 0.00 0.00 0.00 0.00 0.00 0.00 0.00 0.00 0.00 0.00 0.00 0.00 0.00 0.00
0.00 0.00 0.00 0.00 0.00 0.00 0.00 0.00 0.00 0.00 0.00 0.00 0.00 0.00 0.00 0.00 0.00 0.00 0.00 0.00 0.00 0.00 0.00 0.01 0.01 0.00 0.00 0.00 0.00 0.00 0.00 0.00 0.00 0.00 0.00 0.00 0.00 0.00 0.00 0.00 0.00 0.00 0.00
0.00 0.00 0.00 0.00 0.00 0.00 0.00 0.00 0.00 0.00 0.00 0.00 0.00 0.00 0.00 0.00 0.00 0.00 0.00 0.00 0.00 0.01 0.00 0.00 0.00 0.00 0.00 0.00 0.00 0.00 0.00 0.00 0.00 0.00 0.00 0.00 0.00 0.00 0.00 0.00 0.00 0.00 0.00
0.00 0.00 0.00 0.00 0.00 0.00 0.00 0.00 0.00 0.00 0.00 0.00 0.00 0.00 0.00 0.00 0.00 0.00 0.00 0.00 0.00 0.00 0.00 0.00 0.00 0.00 0.00 0.00 0.00 0.00 0.00 0.00 0.00 0.00 0.00 0.00 0.00 0.00 0.00 0.00 0.00 0.00 0.00
0.00 0.00 0.00 0.00 0.00 0.00 0.00 0.00 0.00 0.00 0.00 0.00 0.00 0.00 0.00 0.00 0.00 0.00 0.00 0.00 0.00 0.00 0.00 0.00 0.00 0.00 0.00 0.00 0.00 0.00 0.00 0.00 0.00 0.00 0.00 0.00 0.00 0.00 0.00 0.00 0.00 0.00 0.00
0.00 0.00 0.00 0.00 0.00 0.00 0.00 0.00 0.00 0.01 0.00 0.00 0.00 0.00 0.00 0.00 0.00 0.00 0.00 0.00 0.00 0.00 0.00 0.00 0.00 0.00 0.00 0.00 0.00 0.00 0.00 0.00 0.00 0.00 0.00 0.00 0.00 0.00 0.00 0.00 0.00 0.00 0.00
0.00 0.00 0.00 0.00 0.00 0.00 0.00 0.00 0.00 0.00 0.00 0.00 0.00 0.00 0.00 0.00 0.00 0.00 0.00 0.00 0.00 0.00 0.00 0.00 0.00 0.00 0.00 0.00 0.00 0.00 0.00 0.00 0.00 0.00 0.00 0.00 0.00 0.00 0.00 0.00 0.00 0.00 0.00
0.00 0.00 0.00 0.00 0.00 0.00 0.00 0.00 0.00 0.00 0.00 0.00 0.00 0.00 0.00 0.00 0.00 0.00 0.00 0.00 0.00 0.00 0.00 0.00 0.00 0.00 0.00 0.00 0.00 0.00 0.00 0.00 0.00 0.00 0.00 0.00 0.00 0.00 0.00 0.00 0.00 0.00 0.00
0.00 0.00 0.00 0.00 0.00 0.00 0.00 0.00 0.00 0.00 0.00 0.00 0.00 0.00 0.00 0.00 0.00 0.00 0.00 0.00 0.00 0.00 0.00 0.00 0.00 0.00 0.00 0.00 0.00 0.00 0.00 0.00 0.00 0.00 0.00 0.00 0.00 0.00 0.00 0.00 0.00 0.00 0.00
0.00 0.00 0.00 0.00 0.00 0.00 0.00 0.00 0.00 0.00 0.00 0.00 0.00 0.00 0.00 0.00 0.00 0.00 0.00 0.00 0.00 0.00 0.00 0.00 0.00 0.00 0.00 0.00 0.00 0.00 0.00 0.00 0.00 0.00 0.00 0.00 0.00 0.00 0.00 0.00 0.00 0.00 0.00
0.00 0.00 0.00 0.00 0.00 0.00 0.00 0.00 0.00 0.00 0.00 0.00 0.00 0.00 0.00 0.00 0.00 0.00 0.00 0.00 0.00 0.00 0.00 0.00 0.00 0.00 0.00 0.00 0.00 0.00 0.00 0.00 0.00 0.00 0.00 0.00 0.00 0.00 0.00 0.00 0.00 0.00 0.00
0.00 0.00 0.00 0.00 0.00 0.00 0.00 0.00 0.00 0.00 0.00 0.00 0.00 0.00 0.00 0.00 0.00 0.00 0.00 0.00 0.00 0.00 0.00 0.00 0.00 0.00 0.00 0.00 0.00 0.00 0.00 0.00 0.00 0.00 0.00 0.00 0.00 0.00 0.00 0.00 0.00 0.00 0.00
0.00 0.00 0.00 0.00 0.00 0.00 0.00 0.00 0.00 0.00 0.00 0.00 0.00 0.00 0.00 0.00 0.00 0.00 0.00 0.00 0.00 0.00 0.00 0.00 0.00 0.00 0.00 0.00 0.00 0.00 0.00 0.00 0.00 0.00 0.00 0.00 0.00 0.00 0.00 0.00 0.00 0.00 0.00
0.00 0.00 0.00 0.00 0.00 0.00 0.00 0.00 0.00 0.00 0.00 0.00 0.00 0.00 0.00 0.00 0.00 0.00 0.00 0.00 0.00 0.00 0.00 0.00 0.00 0.00 0.00 0.00 0.00 0.00 0.00 0.00 0.00 0.00 0.00 0.00 0.00 0.00 0.00 0.00 0.00 0.00 0.00
0.00 0.00 0.00 0.00 0.00 0.00 0.00 0.00 0.00 0.00 0.00 0.00 0.00 0.00 0.00 0.00 0.00 0.00 0.00 0.00 0.00 0.00 0.00 0.00 0.00 0.00 0.00 0.00 0.00 0.00 0.00 0.00 0.00 0.00 0.00 0.00 0.00 0.00 0.00 0.00 0.00 0.00 0.00
0.00 0.00 0.00 0.00 0.00 0.00 0.00 0.00 0.00 0.00 0.00 0.00 0.00 0.00 0.00 0.00 0.00 0.00 0.00 0.00 0.00 0.00 0.00 0.00 0.00 0.00 0.00 0.00 0.00 0.00 0.00 0.00 0.00 0.00 0.00 0.00 0.00 0.00 0.00 0.00 0.00 0.00 0.00
0.00 0.00 0.00 0.00 0.00 0.00 0.00 0.00 0.00 0.00 0.00 0.00 0.00 0.00 0.00 0.00 0.00 0.00 0.00 0.00 0.00 0.00 0.00 0.00 0.00 0.00 0.00 0.00 0.00 0.00 0.00 0.00 0.00 0.00 0.00 0.00 0.00 0.00 0.00 0.00 0.00 0.00 0.00
0.03 0.00 0.00 0.00 0.00 0.00 0.00 0.00 0.00 0.00 0.00 0.00 0.00 0.00 0.00 0.00 0.00 0.00 0.00 0.00 0.00 0.00 0.00 0.00 0.00 0.00 0.00 0.00 0.00 0.00 0.00 0.00 0.00 0.00 0.00 0.00 0.00 0.00 0.00 0.00 0.00 0.00 0.00
0.05 0.03 0.00 0.00 0.00 0.00 0.00 0.00 0.00 0.00 0.00 0.00 0.00 0.00 0.00 0.00 0.00 0.00 0.00 0.00 0.00 0.00 0.00 0.00 0.00 0.00 0.00 0.00 0.00 0.00 0.00 0.00 0.00 0.00 0.00 0.00 0.00 0.00 0.00 0.00 0.00 0.00 0.00
0.07 0.02 0.01 0.00 0.00 0.00 0.00 0.00 0.00 0.00 0.00 0.00 0.00 0.00 0.00 0.00 0.00 0.00 0.00 0.00 0.00 0.00 0.00 0.00 0.00 0.00 0.00 0.00 0.00 0.00 0.00 0.00 0.00 0.00 0.00 0.00 0.00 0.00 0.00 0.00 0.00 0.00 0.00
MSLP
1001.78 1002.24 1002.70 1003.15 1003.44 1003.85 1004.32 1004.78 1005.10 1005.27 1005.48 1005.84 1006.00 1006.19 1006.28 1006.38 1006.44 1006.62 1006.76 1006.66 1006.71 1006.84 1007.07 1007.38 1007.53 1007.62 1008.07 1008.33 1008.64 1009.08 1009.43 1009.77 1010.69 1011.30 1011.38 1011.53 1011.75 1012.11 1012.77 1013.30 1013.71 1014.35 1015.20
1002.03 1002.56 1002.99 1003.41 1003.75 1004.18 1004.56 1004.82 1004.99 1005.28 1005.61 1005.77 1005.91 1006.06 1006.16 1006.34 1006.38 1006.55 1006.57 1006.39 1006.59 1006.72 1006.85 1007.21 1007.47 1007.53 1007.88 1008.16 1008.51 1008.81 1009.21 1009.70 1010.24 1011.04 1011.58 1011.93 1012.30 1012.74 1013.31 1014.00 1014.53 1015.16 1015.92
1002.18 1002.75 1003.27 1003.60 1003.96 1004.30 1004.61 1004.83 1005.03 1005.27 1005.54 1005.66 1005.78 1005.95 1006.15 1006.20 1006.28 1006.25 1006.21 1006.26 1006.46 1006.60 1006.89 1007.08 1007.39 1007.56 1007.90 1008.28 1008.58 1008.89 1009.39 1009.98 1010.51 1011.08 1011.82 1012.22 1012.81 1013.18 1013.87 1014.66 1014.86 1015.96 1016.79
1002.26 1002.77 1003.25 1003.69 1004.12 1004.37 1004.59 1004.86 1005.10 1005.23 1005.47 1005.50 1005.62 1005.98 1006.19 1006.29 1006.32 1006.25 1005.95 1005.98 1006.34 1006.68 1006.90 1006.99 1007.22 1007.54 1007.89 1008.28 1008.63 1009.04 1009.60 1010.22 1010.94 1011.58 1012.19 1012.85 1013.21 1014.07 1014.47 1015.01 1016.02 1016.77 1017.68
1002.35 1002.78 1003.36 1003.78 1004.11 1004.47 1004.73 1004.97 1005.08 1005.19 1005.32 1005.36 1005.83 1006.17 1006.42 1006.57 1006.74 1006.46 1006.17 1006.27 1006.55 1006.85 1006.94 1007.04 1007.29 1007.59 1007.92 1008.17 1008.53 1009.00 1009.57 1010.28 1011.01 1011.83 1012.64 1013.26 1013.95 1014.61 1014.81 1015.68 1016.40 1017.53 1018.65
1002.33 1002.85 1003.28 1003.66 1004.13 1004.51 1004.78 1004.94 1005.08 1005.16 1005.25 1005.66 1006.14 1006.34 1006.73 1006.80 1007.06 1006.72 1006.58 1006.61 1006.83 1007.05 1007.20 1007.31 1007.46 1007.82 1008.22 1008.53 1008.95 1009.33 1009.58 1009.99 1011.05 1011.84 1012.78 1013.48 1014.28 1014.77 1015.45 1016.17 1016.70 1017.87 1019.12
1002.28 1002.83 1003.27 1003.63 1004.04 1004.40 1004.79 1005.00 1005.10 1005.30 1005.45 1005.96 1006.49 1006.69 1007.05 1007.06 1007.19 1007.02 1006.91 1006.92 1007.19 1007.33 1007.43 1007.58 1007.86 1008.34 1008.62 1009.14 1009.61 1009.95 1010.29 1010.79 1011.24 1011.64 1012.32 1013.40 1014.14 1014.95 1015.44 1016.44 1017.36 1018.02 1019.00
1002.15 1002.67 1003.25 1003.52 1003.95 1004.41 1004.82 1005.10 1005.33 1005.60 1005.83 1006.22 1006.71 1006.96 1007.27 1007.41 1007.37 1007.15 1007.14 1007.30 1007.47 1007.60 1007.92 1008.11 1008.38 1008.74 1009.10 1009.42 1009.92 1010.51 1011.01 1011.64 1012.07 1012.48 1013.09 1013.75 1014.38 1015.22 1015.88 1016.27 1017.55 1018.56 1019.72
1002.13 1002.68 1003.17 1003.57 1003.92 1004.38 1004.86 1005.15 1005.44 1005.70 1006.09 1006.46 1006.76 1007.11 1007.33 1007.50 1007.57 1007.42 1007.45 1007.66 1007.87 1008.08 1008.41 1008.53 1008.91 1009.27 1009.58 1009.85 1010.24 1010.95 1011.79 1012.66 1012.90 1013.26 1013.84 1014.37 1015.28 1015.76 1016.17 1016.85 1018.03 1018.77 1020.04
1002.06 1002.54 1003.10 1003.55 1003.89 1004.38 1004.71 1005.21 1005.52 1005.84 1006.23 1006.63 1006.95 1007.17 1007.38 1007.62 1007.78 1007.72 1007.81 1008.01 1008.29 1008.55 1009.02 1009.27 1009.56 1009.93 1010.19 1010.53 1010.81 1011.37 1012.27 1012.97 1013.48 1014.33 1015.24 1015.83 1016.04 1016.77 1016.93 1017.04 1017.84 1018.80 1019.73
1001.92 1002.47 1003.04 1003.48 1003.89 1004.36 1004.79 1005.18 1005.55 1005.90 1006.33 1006.83 1007.22 1007.45 1007.63 1007.81 1008.01 1007.99 1008.13 1008.33 1008.63 1008.97 1009.46 1010.02 1010.46 1010.53 1010.80 1011.08 1011.46 1011.92 1012.57 1013.29 1013.98 1014.67 1015.66 1016.42 1016.79 1017.21 1017.61 1017.92 1018.23 1018.51 1019.04
1001.91 1002.47 1003.00 1003.43 1003.99 1004.41 1004.82 1005.24 1005.60 1005.96 1006.44 1007.08 1007.50 1007.76 1007.89 1008.01 1008.25 1008.36 1008.37 1008.60 1008.96 1009.27 1009.80 1010.39 1011.03 1011.18 1011.55 1011.85 1012.22 1012.53 1013.07 1013.73 1014.48 1015.27 1016.09 1016.76 1017.28 1017.68 1017.91 1017.96 1018.18 1018.51 1018.77
1001.95 1002.59 1003.11 1003.62 1004.14 1004.59 1004.97 1005.39 1005.84 1006.21 1006.68 1007.22 1007.62 1007.92 1008.09 1008.21 1008.53 1008.77 1008.69 1009.00 1009.36 1009.86 1010.16 1010.71 1011.43 1011.85 1012.13 1012.51 1012.86 1013.12 1013.46 1014.13 1014.96 1015.65 1016.30 1016.91 1017.17 1017.49 1017.75 1018.10 1018.41 1018.73 1019.07
1002.05 1002.75 1003.36 1003.82 1004.34 1004.86 1005.20 1005.46 1005.83 1006.22 1006.70 1007.15 1007.59 1007.90 1008.17 1008.39 1008.67 1009.02 1009.40 1009.68 1009.87 1010.40 1010.72 1011.32 1011.81 1012.22 1012.54 1013.06 1013.64 1013.70 1014.02 1014.41 1014.86 1015.56 1016.35 1016.87 1017.23 1017.65 1018.01 1018.18 1018.65 1019.04 1019.41
1002.08 1002.78 1003.47 1003.96 1004.44 1005.13 1005.55 1005.93 1006.02 1006.05 1006.31 1006.88 1007.31 1007.67 1008.12 1008.50 1008.67 1008.88 1009.28 1009.75 1010.12 1010.56 1011.05 1011.64 1011.97 1012.47 1013.07 1013.44 1013.82 1014.14 1014.40 1014.70 1015.09 1015.58 1016.21 1016.71 1017.22 1017.73 1018.05 1018.16 1018.42 1018.94 1019.32
1002.25 1002.91 1003.46 1004.06 1004.58 1005.08 1005.65 1006.18 1006.29 1006.28 1006.33 1006.68 1007.03 1007.41 1007.94 1008.17 1008.47 1008.96 1009.39 1009.78 1010.25 1010.68 1011.23 1011.69 1012.11 1012.55 1013.02 1013.44 1013.87 1014.23 1014.46 1014.72 1015.13 1015.56 1016.07 1016.51 1017.04 1017.43 1017.79 1017.98 1018.19 1018.58 1018.95
1001.84 1002.63 1003.33 1003.90 1004.48 1005.02 1005.63 1005.98 1006.28 1006.55 1006.54 1006.75 1007.13 1007.42 1007.79 1008.17 1008.71 1009.12 1009.56 1009.97 1010.53 1010.85 1011.35 1011.81 1012.14 1012.54 1012.88 1013.28 1013.69 1013.98 1014.29 1014.53 1014.87 1015.35 1015.90 1016.30 1016.66 1017.13 1017.46 1017.64 1017.90 1018.18 1018.32
1001.54 1002.09 1002.83 1003.48 1004.10 1004.67 1005.13 1005.45 1005.81 1006.29 1006.63 1007.16 1007.52 1007.71 1007.96 1008.27 1008.81 1009.40 1009.87 1010.41 1011.14 1011.13 1011.23 1011.63 1011.99 1012.29 1012.58 1012.94 1013.32 1013.62 1014.03 1014.43 1014.81 1015.15 1015.58 1015.83 1016.24 1016.57 1016.88 1016.98 1017.10 1017.32 1017.58
1001.73 1002.23 1002.64 1003.17 1003.64 1004.08 1004.62 1005.14 1005.48 1005.92 1006.32 1006.86 1007.61 1008.17 1008.53 1008.89 1009.37 1009.89 1009.99 1010.04 1010.56 1010.82 1010.98 1011.33 1011.54 1011.82 1012.12 1012.41 1012.78 1013.20 1013.57 1013.95 1014.19 1014.59 1014.93 1015.12 1015.33 1015.70 1015.87 1015.97 1016.14 1016.36 1016.82
1001.30 1001.66 1002.30 1002.87 1003.43 1003.97 1004.46 1004.97 1005.43 1005.80 1006.26 1006.65 1007.15 1007.65 1008.47 1009.01 1009.63 1009.89 1010.08 1009.96 1010.11 1010.30 1010.55 1010.82 1011.06 1011.35 1011.68 1011.96 1012.25 1012.52 1012.88 1013.31 1013.62 1013.79 1013.97 1014.16 1014.33 1014.62 1014.90 1015.13 1015.40 1015.68 1015.94
1001.06 1001.53 1001.72 1002.38 1003.09 1003.45 1003.90 1004.45 1004.85 1005.34 1005.87 1006.36 1006.61 1007.12 1007.15 1007.86 1008.31 1008.67 1009.01 1009.27 1009.34 1009.51 1009.77 1010.05 1010.37 1010.70 1010.98 1011.28 1011.64 1012.01 1012.27 1012.47 1012.73 1013.01 1013.26 1013.50 1013.77 1014.04 1013.98 1014.11 1014.44 1014.67 1014.87
1000.64 1001.08 1001.66 1001.93 1002.31 1002.92 1003.36 1003.73 1004.28 1004.73 1005.21 1005.72 1006.14 1006.91 1007.29 1007.73 1007.63 1007.72 1007.92 1008.11 1008.24 1008.43 1008.68 1009.02 1009.41 1009.70 1009.94 1010.21 1010.53 1010.93 1011.19 1011.46 1011.75 1012.07 1012.38 1012.62 1012.80 1012.91 1013.01 1013.21 1013.40 1013.67 1013.99
1001.05 1000.94 1001.28 1001.64 1001.85 1002.23 1002.84 1003.30 1003.74 1004.15 1004.44 1004.78 1005.27 1006.02 1006.79 1006.94 1006.81 1006.80 1006.82 1006.88 1007.24 1007.53 1007.81 1008.13 1008.41 1008.68 1008.83 1008.98 1009.15 1009.53 1009.81 1009.86 1010.06 1010.54 1010.99 1011.31 1011.55 1011.76 1011.93 1012.09 1012.29 1012.67 1013.12
1001.92 1001.55 1001.49 1001.60 1001.72 1002.18 1002.53 1002.81 1003.08 1003.36 1003.69 1004.02 1004.40 1004.83 1005.32 1005.54 1005.61 1005.54 1005.57 1005.87 1006.25 1006.46 1006.79 1007.08 1007.31 1007.47 1007.70 1007.89 1007.98 1008.14 1008.24 1008.40 1008.73 1009.02 1009.51 1009.90 1010.14 1010.39 1010.61 1010.83 1011.02 1011.24 1011.57
1002.93 1002.70 1002.19 1002.09 1002.01 1002.11 1002.33 1002.59 1002.82 1003.01 1003.28 1003.43 1003.63 1003.89 1004.06 1004.26 1004.45 1004.50 1004.60 1004.89 1005.14 1005.44 1005.65 1005.83 1005.98 1006.08 1006.23 1006.43 1006.59 1006.64 1006.77 1007.12 1007.35 1007.62 1008.08 1008.53 1008.74 1008.96 1009.13 1009.32 1009.60 1009.89 1010.24
1004.22 1003.94 1003.60 1003.30 1003.04 1002.78 1002.83 1002.95 1003.00 1003.12 1003.19 1003.16 1003.17 1003.17 1003.19 1003.25 1003.25 1003.40 1003.57 1003.83 1004.02 1004.12 1004.23 1004.43 1004.45 1004.51 1004.57 1004.61 1004.72 1004.85 1005.18 1005.51 1005.92 1006.27 1006.58 1007.10 1007.35 1007.47 1007.69 1007.92 1008.18 1008.55 1008.92
Thickness
5698 5693 5688 5683 5680 5675 5669 5664 5660 5658 5655 5650 5648 5644 5643 5641 5638 5635 5631 5628 5627 5624 5621 5618 5616 5615 5612 5612 5612 5612 5612 5613 5609 5608 5613 5615 5617 5619 5618 5618 5620 5620 5618
5692 5687 5682 5677 5673 5667 5663 5660 5658 5654 5651 5648 5646 5644 5643 5640 5638 5634 5632 5631 5627 5624 5622 5618 5616 5616 5615 5615 5614 5615 5614 5614 5613 5609 5610 5612 5614 5615 5614 5614 5613 5612 5609
5688 5681 5675 5671 5667 5663 5659 5657 5654 5652 5649 5647 5646 5644 5642 5641 5638 5635 5634 5631 5628 5625 5620 5618 5616 5616 5615 5614 5614 5615 5614 5612 5612 5610 5607 5611 5610 5610 5608 5604 5608 5606 5601
5684 5678 5672 5667 5662 5659 5657 5654 5652 5651 5648 5647 5648 5644 5642 5640 5637 5636 5636 5633 5628 5623 5620 5619 5617 5616 5615 5614 5615 5614 5613 5610 5609 5606 5606 5607 5607 5603 5603 5606 5603 5600 5597
5681 5676 5669 5665 5660 5656 5653 5651 5650 5649 5648 5648 5645 5642 5640 5637 5634 5635 5634 5631 5627 5622 5620 5620 5619 5617 5616 5617 5617 5616 5614 5612 5610 5606 5604 5604 5603 5601 5604 5600 5600 5595 5589
5679 5673 5668 5663 5657 5653 5650 5649 5648 5648 5647 5646 5643 5640 5637 5636 5629 5633 5633 5631 5626 5622 5620 5620 5619 5616 5614 5614 5614 5614 5615 5614 5610 5608 5603 5603 5601 5601 5600 5599 5599 5593 5586
5678 5672 5667 5661 5657 5653 5650 5647 5647 5646 5646 5643 5640 5638 5636 5635 5629 5632 5632 5632 5627 5624 5622 5620 5617 5613 5611 5609 5608 5609 5609 5610 5610 5610 5607 5604 5602 5600 5601 5597 5595 5593 5589
5678 5672 5665 5662 5658 5653 5649 5646 5645 5644 5643 5641 5638 5637 5635 5633 5630 5632 5633 5632 5629 5626 5622 5620 5616 5613 5609 5608 5608 5608 5609 5608 5609 5608 5606 5604 5602 5598 5597 5599 5594 5590 5586
5678 5671 5666 5662 5658 5653 5649 5645 5643 5642 5640 5639 5639 5637 5636 5634 5630 5632 5634 5632 5629 5627 5624 5621 5617 5613 5608 5606 5608 5607 5605 5602 5603 5605 5603 5602 5598 5597 5598 5598 5592 5592 5586
5677 5673 5667 5662 5658 5653 5650 5645 5643 5641 5639 5638 5638 5637 5636 5635 5631 5633 5634 5633 5629 5628 5624 5621 5618 5614 5610 5609 5609 5608 5605 5603 5602 5598 5595 5593 5593 5593 5595 5596 5596 5593 5589
5679 5675 5667 5663 5659 5654 5649 5647 5644 5641 5639 5637 5636 5635 5635 5635 5634 5633 5634 5634 5631 5628 5625 5621 5618 5617 5615 5613 5611 5610 5609 5607 5603 5602 5597 5594 5595 5594 5594 5596 5596 5598 5596
5679 5674 5668 5664 5659 5654 5650 5647 5644 5640 5637 5635 5634 5634 5635 5636 5633 5632 5633 5633 5631 5629 5626 5622 5618 5617 5615 5614 5614 5611 5610 5610 5607 5603 5599 5598 5595 5595 5598 5600 5601 5600 5602
5679 5673 5669 5665 5659 5654 5650 5646 5643 5639 5635 5634 5635 5635 5636 5636 5634 5631 5631 5630 5628 5627 5627 5623 5617 5616 5617 5616 5614 5614 5614 5611 5607 5605 5603 5600 5602 5603 5602 5602 5602 5602 5601
5679 5673 5669 5665 5660 5656 5651 5648 5644 5641 5637 5636 5636 5637 5637 5637 5636 5634 5631 5629 5627 5625 5623 5621 5619 5618 5619 5616 5614 5617 5616 5615 5614 5611 5607 5604 5605 5604 5604 5605 5603 5601 5601
5680 5675 5670 5666 5663 5656 5651 5648 5648 5646 5644 5641 5641 5641 5640 5639 5640 5638 5637 5634 5632 5629 5627 5624 5624 5623 5621 5621 5621 5620 5620 5619 5618 5615 5612 5610 5608 5606 5606 5607 5607 5604 5603
5679 5675 5672 5667 5664 5660 5653 5648 5644 5645 5646 5646 5645 5646 5644 5643 5640 5637 5637 5637 5633 5631 5632 5630 5629 5627 5625 5625 5624 5623 5623 5622 5619 5617 5615 5614 5612 5611 5609 5609 5609 5608 5606
5684 5679 5675 5671 5667 5663 5659 5656 5654 5650 5646 5648 5646 5648 5648 5646 5640 5640 5639 5638 5636 5636 5636 5634 5633 5632 5631 5629 5628 5627 5625 5624 5622 5621 5618 5616 5615 5613 5610 5611 5611 5610 5610
5687 5682 5681 5677 5674 5669 5667 5665 5662 5659 5659 5657 5649 5651 5650 5648 5645 5642 5640 5639 5636 5638 5640 5638 5636 5635 5635 5634 5632 5631 5629 5627 5626 5625 5623 5622 5619 5618 5616 5617 5617 5617 5615
5682 5682 5683 5681 5679 5677 5673 5670 5668 5667 5666 5664 5657 5653 5649 5647 5645 5643 5644 5649 5647 5644 5642 5641 5641 5640 5639 5639 5638 5636 5635 5634 5633 5630 5629 5628 5627 5625 5623 5623 5623 5618 5615
5688 5686 5683 5682 5679 5677 5675 5673 5670 5669 5669 5668 5667 5666 5656 5654 5651 5649 5648 5651 5651 5650 5649 5647 5646 5645 5644 5643 5642 5642 5641 5638 5637 5636 5635 5634 5632 5630 5628 5627 5626 5623 5620
5690 5686 5688 5684 5681 5681 5679 5677 5676 5673 5672 5671 5673 5672 5667 5672 5667 5664 5659 5657 5657 5657 5655 5654 5652 5650 5649 5647 5646 5644 5643 5642 5641 5640 5639 5637 5635 5633 5633 5631 5630 5628 5626
5692 5690 5686 5686 5686 5683 5681 5681 5678 5677 5676 5675 5676 5672 5663 5669 5672 5670 5668 5666 5666 5665 5664 5662 5659 5657 5656 5655 5653 5651 5650 5648 5646 5643 5641 5639 5638 5638 5636 5634 5632 5630 5627
5684 5688 5688 5687 5688 5686 5682 5681 5681 5679 5678 5679 5679 5676 5667 5671 5674 5674 5674 5674 5672 5671 5670 5668 5666 5664 5663 5662 5660 5658 5656 5656 5655 5652 5648 5646 5643 5641 5639 5638 5636 5633 5627
5673 5679 5682 5683 5685 5683 5683 5683 5682 5680 5681 5681 5680 5679 5676 5677 5678 5679 5679 5678 5676 5676 5674 5673 5671 5670 5668 5666 5665 5664 5663 5662 5659 5657 5654 5650 5648 5645 5644 5642 5641 5640 5636
5659 5664 5672 5676 5680 5681 5680 5679 5679 5680 5680 5681 5681 5681 5680 5679 5679 5680 5681 5680 5679 5677 5678 5677 5677 5676 5674 5673 5672 5671 5670 5667 5664 5661 5657 5654 5652 5648 5646 5645 5643 5640 5637
5639 5645 5653 5660 5666 5670 5671 5673 5674 5675 5676 5679 5681 5683 5684 5683 5683 5682 5681 5680 5680 5680 5680 5680 5682 5682 5681 5680 5679 5678 5676 5674 5670 5666 5660 5656 5655 5654 5650 5648 5645 5642 5638